Weather History for Huntingburg, IN

Change the Weather History Date:

Thursday, March 14, 2013

  Actual Average Record
Temperature  
Mean Temperature 30 °F -  
Max Temperature 42 °F 50 °F 80 °F (2012)
Min Temperature 19 °F 33 °F 19 °F (2013)
Degree Days  
Heating Degree Days 34    
Moisture  
Dew Point 21 °F    
Average Humidity 68    
Maximum Humidity 86    
Minimum Humidity 42    
Precipitation  
Precipitation 0.00 in - - ()
Sea Level Pressure  
Sea Level Pressure 30.34 in    
Wind  
Wind Speed 4 mph (South)    
Max Wind Speed 12 mph    
Max Gust Speed 17 mph    
Visibility 10 miles    
Events      
Averages and records for this station are not official NWS values.
T = Trace of Precipitation, MM = Missing Value Source: NWS Daily Summary

Daily Weather History Graph

Daily Weather History Graph

Search for Another Location

Airport:

Trip Planner

Search our weather history database for the weather conditions in past years. The results will help you decide how hot, cold, wet, or windy it might be!

Date:

Astronomy

Mar. 14, 2013 Rise Set
Actual Time 8:00 AM EDT 7:54 PM EDT
Civil Twilight 7:33 AM EDT 8:20 PM EDT
Nautical Twilight 7:03 AM EDT 8:51 PM EDT
Astronomical Twilight 6:32 AM EDT 9:22 PM EDT
Moon 9:16 AM EDT (3/14) 11:06 PM EDT (3/14)
Length of Visible Light 12h 46m
Length of Day
11h 54m
Waxing Crescent, 9% of the Moon is Illuminated
Mar 14
Waxing Crescent
Mar 19
First Quarter
Mar 27
Full
Apr 3
Last Quarter
Apr 10
New

Hourly Weather History & Observations

Time (EDT) Temp. Windchill Dew Point Humidity Pressure Visibility Wind Dir Wind Speed Gust Speed Precip Events Conditions
12:15 AM 24.8 °F 17.9 °F 17.6 °F 74% 30.41 in 10.0 mi SSW 5.8 mph - N/A   Clear
12:35 AM 24.8 °F 19.1 °F 17.6 °F 74% 30.41 in 10.0 mi SSW 4.6 mph - N/A   Clear
12:55 AM 24.8 °F - 15.8 °F 69% 30.40 in 10.0 mi Calm Calm - N/A   Clear
1:15 AM 24.8 °F 20.5 °F 15.8 °F 69% 30.40 in 10.0 mi SSW 3.5 mph - N/A   Clear
1:35 AM 24.8 °F - 17.6 °F 74% 30.40 in 10.0 mi Calm Calm - N/A   Clear
1:55 AM 24.8 °F - 17.6 °F 74% 30.40 in 10.0 mi Calm Calm - N/A   Clear
2:15 AM 24.8 °F 20.5 °F 17.6 °F 74% 30.40 in 10.0 mi SSW 3.5 mph - N/A   Clear
2:35 AM 23.0 °F 18.4 °F 17.6 °F 80% 30.40 in 10.0 mi SSW 3.5 mph - N/A   Clear
2:55 AM 23.0 °F 18.4 °F 17.6 °F 80% 30.40 in 10.0 mi SSW 3.5 mph - N/A   Clear
3:15 AM 24.8 °F 20.5 °F 17.6 °F 74% 30.40 in 10.0 mi SSW 3.5 mph - N/A   Clear
3:35 AM 24.8 °F 20.5 °F 17.6 °F 74% 30.40 in 10.0 mi SW 3.5 mph - N/A   Clear
3:55 AM 23.0 °F 18.4 °F 17.6 °F 80% 30.40 in 10.0 mi WSW 3.5 mph - N/A   Clear
4:15 AM 21.2 °F - 15.8 °F 80% 30.40 in 10.0 mi Calm Calm - N/A   Clear
4:35 AM 21.2 °F 16.4 °F 17.6 °F 86% 30.40 in 10.0 mi SW 3.5 mph - N/A   Clear
4:55 AM 23.0 °F 18.4 °F 17.6 °F 80% 30.39 in 10.0 mi SSW 3.5 mph - N/A   Clear
5:15 AM 21.2 °F - 17.6 °F 86% 30.39 in 10.0 mi Calm Calm - N/A   Clear
5:35 AM 21.2 °F 16.4 °F 17.6 °F 86% 30.40 in 10.0 mi SW 3.5 mph - N/A   Clear
5:55 AM 21.2 °F 16.4 °F 15.8 °F 80% 30.39 in 10.0 mi SSW 3.5 mph - N/A   Clear
6:15 AM 21.2 °F - 17.6 °F 86% 30.39 in 10.0 mi Calm Calm - N/A   Clear
6:35 AM 21.2 °F 16.4 °F 17.6 °F 86% 30.38 in 10.0 mi South 3.5 mph - N/A   Clear
6:55 AM 21.2 °F - 15.8 °F 80% 30.39 in 10.0 mi Calm Calm - N/A   Clear
7:15 AM 21.2 °F 16.4 °F 17.6 °F 86% 30.38 in 10.0 mi SSE 3.5 mph - N/A   Clear
7:35 AM 21.2 °F 16.4 °F 15.8 °F 80% 30.38 in 10.0 mi SSE 3.5 mph - N/A   Clear
7:55 AM 21.2 °F - 17.6 °F 86% 30.40 in 10.0 mi Calm Calm - N/A   Clear
8:15 AM 21.2 °F - 15.8 °F 80% 30.40 in 9.0 mi Calm Calm - N/A   Clear
8:35 AM 19.4 °F 14.3 °F 15.8 °F 86% 30.40 in 8.0 mi South 3.5 mph - N/A   Clear
8:55 AM 21.2 °F 16.4 °F 17.6 °F 86% 30.41 in 9.0 mi SSE 3.5 mph - N/A   Clear
9:15 AM 24.8 °F 17.9 °F 21.2 °F 86% 30.40 in 9.0 mi South 5.8 mph - N/A   Clear
9:35 AM 26.6 °F 21.2 °F 21.2 °F 80% 30.41 in 10.0 mi South 4.6 mph - N/A   Clear
9:55 AM 28.4 °F 24.6 °F 23.0 °F 80% 30.40 in 10.0 mi South 3.5 mph - N/A   Clear
10:35 AM 30.2 °F 23.4 °F 23.0 °F 75% 30.40 in 10.0 mi South 6.9 mph - N/A   Clear
10:55 AM 33.8 °F 30.8 °F 24.8 °F 70% 30.39 in 10.0 mi SSW 3.5 mph - N/A   Clear
11:15 AM 35.6 °F 29.2 °F 24.8 °F 65% 30.39 in 10.0 mi SW 8.1 mph - N/A   Clear
11:35 AM 33.8 °F 27.7 °F 19.4 °F 56% 30.40 in 10.0 mi SW 6.9 mph - N/A   Clear
11:55 AM 35.6 °F 30.7 °F 19.4 °F 52% 30.40 in 10.0 mi WSW 5.8 mph - N/A   Clear
12:15 PM 35.6 °F 29.9 °F 19.4 °F 52% 30.40 in 10.0 mi SW 6.9 mph - N/A   Clear
12:35 PM 37.4 °F 31.4 °F 19.4 °F 48% 30.40 in 10.0 mi WSW 8.1 mph - N/A   Partly Cloudy
12:55 PM 37.4 °F 32.8 °F 21.2 °F 52% 30.39 in 10.0 mi SW 5.8 mph - N/A   Partly Cloudy
1:15 PM 37.4 °F 29.8 °F 21.2 °F 52% 30.38 in 10.0 mi SW 11.5 mph - N/A   Clear
1:35 PM 39.2 °F 35.9 °F 21.2 °F 49% 30.37 in 10.0 mi SW 4.6 mph - N/A   Clear
1:55 PM 39.2 °F 33.6 °F 19.4 °F 45% 30.36 in 10.0 mi SSW 8.1 mph - N/A   Partly Cloudy
2:35 PM 39.2 °F 33.0 °F 24.8 °F 56% 30.34 in 10.0 mi SSW 9.2 mph 17.3 mph N/A   Clear
2:55 PM 42.8 °F 37.0 °F 24.8 °F 49% 30.33 in 10.0 mi SSW 10.4 mph - N/A   Clear
3:15 PM 42.8 °F 38.6 °F 23.0 °F 46% 30.32 in 10.0 mi SSW 6.9 mph - N/A   Clear
3:55 PM 42.8 °F 37.5 °F 21.2 °F 42% 30.29 in 10.0 mi SW 9.2 mph - N/A   Clear
4:15 PM 41.0 °F 35.8 °F 21.2 °F 45% 30.29 in 10.0 mi SW 8.1 mph - N/A   Mostly Cloudy
4:35 PM 42.8 °F 37.5 °F 21.2 °F 42% 30.28 in 10.0 mi SSW 9.2 mph - N/A   Mostly Cloudy
4:55 PM 41.0 °F 35.8 °F 21.2 °F 45% 30.27 in 10.0 mi SSW 8.1 mph - N/A   Mostly Cloudy
5:15 PM 39.2 °F 33.6 °F 23.0 °F 52% 30.26 in 10.0 mi South 8.1 mph - N/A   Mostly Cloudy
5:35 PM 39.2 °F 35.0 °F 24.8 °F 56% 30.27 in 10.0 mi South 5.8 mph - N/A   Mostly Cloudy
5:55 PM 39.2 °F 33.6 °F 24.8 °F 56% 30.27 in 10.0 mi SSW 8.1 mph - N/A   Mostly Cloudy
6:15 PM 39.2 °F 33.6 °F 24.8 °F 56% 30.26 in 10.0 mi South 8.1 mph - N/A   Mostly Cloudy
6:35 PM 39.2 °F 34.2 °F 24.8 °F 56% 30.25 in 10.0 mi South 6.9 mph - N/A   Overcast
6:55 PM 39.2 °F 35.9 °F 24.8 °F 56% 30.26 in 10.0 mi South 4.6 mph - N/A   Overcast
7:15 PM 39.2 °F 34.2 °F 24.8 °F 56% 30.25 in 10.0 mi South 6.9 mph - N/A   Overcast
7:35 PM 39.2 °F 34.2 °F 24.8 °F 56% 30.26 in 10.0 mi South 6.9 mph - N/A   Overcast
8:15 PM 37.4 °F 32.8 °F 26.6 °F 65% 30.26 in 10.0 mi SSE 5.8 mph - N/A   Overcast
8:35 PM 37.4 °F 32.8 °F 26.6 °F 65% 30.26 in 10.0 mi SE 5.8 mph - N/A   Mostly Cloudy
8:55 PM 37.4 °F 31.4 °F 26.6 °F 65% 30.25 in 10.0 mi SE 8.1 mph - N/A   Scattered Clouds
9:15 PM 37.4 °F 32.8 °F 26.6 °F 65% 30.24 in 10.0 mi SSE 5.8 mph - N/A   Scattered Clouds
9:35 PM 37.4 °F 32.8 °F 26.6 °F 65% 30.24 in 10.0 mi SSE 5.8 mph - N/A   Scattered Clouds
9:55 PM 37.4 °F 34.9 °F 26.6 °F 65% 30.24 in 10.0 mi SSE 3.5 mph - N/A   Mostly Cloudy
10:15 PM 35.6 °F 31.7 °F 26.6 °F 70% 30.23 in 10.0 mi SSE 4.6 mph - N/A   Overcast
10:35 PM 35.6 °F 31.7 °F 26.6 °F 70% 30.22 in 10.0 mi SSE 4.6 mph - N/A   Overcast
10:55 PM 35.6 °F 30.7 °F 26.6 °F 70% 30.22 in 10.0 mi SE 5.8 mph - N/A   Overcast
11:15 PM 35.6 °F 31.7 °F 26.6 °F 70% 30.22 in 10.0 mi SE 4.6 mph - N/A   Mostly Cloudy
11:35 PM 33.8 °F 27.7 °F 26.6 °F 75% 30.21 in 10.0 mi ESE 6.9 mph - N/A   Partly Cloudy
11:55 PM 33.8 °F 29.6 °F 26.6 °F 75% 30.21 in 10.0 mi SE 4.6 mph - N/A   Clear